Probability
0 1 2 2 3 3 2 1 0 0 0 0 1 4 5 3 1 1 3 13 24 19 10 8 7 4 1 0 0 0 0 0 0 0 0 0 0 0 0 0 0 1 2 3 3 3 2 2 1
0 0 1 1 2 2 1 0 0 0 0 0 2 4 5 3 2 3 7 16 23 19 12 10 9 5 2 1 0 0 0 0 0 0 0 0 0 0 0 0 0 1 2 3 3 2 1 1 0
0 0 0 1 1 1 0 0 1 0 0 1 3 5 6 5 4 7 12 17 21 19 15 15 12 6 3 2 1 0 0 0 0 0 0 0 0 0 0 0 0 0 1 2 1 1 0 0 0
0 0 0 0 0 0 0 0 0 0 0 1 4 7 9 7 7 11 14 18 23 24 21 19 16 8 3 2 1 0 0 0 0 0 0 0 0 0 0 0 0 0 0 0 0 0 0 0 0
0 0 0 0 0 0 0 0 0 0 0 1 6 13 14 10 9 12 14 21 30 33 27 24 20 11 5 2 1 0 0 0 0 0 0 0 0 0 0 0 0 0 0 0 0 0 0 0 0
0 0 0 0 0 0 0 0 0 0 1 1 8 19 21 14 12 14 19 26 36 38 31 24 19 12 6 3 1 0 0 0 0 0 0 0 0 0 0 0 0 0 0 0 0 0 0 0 0
0 0 0 0 0 0 0 0 0 0 1 2 8 21 27 23 19 22 28 35 42 40 28 17 12 9 6 3 1 0 0 0 0 0 0 0 0 0 0 0 0 0 0 0 0 0 0 0 0
0 0 0 0 0 0 0 0 0 0 1 2 7 19 30 31 29 32 39 47 49 40 26 14 8 6 4 2 0 0 0 0 0 0 0 0 0 0 0 0 0 0 0 0 0 0 0 0 0
0 0 0 0 0 0 0 0 0 1 2 5 11 21 31 34 36 42 49 54 53 43 31 21 13 7 4 2 1 1 0 0 0 0 0 0 0 0 0 0 0 0 0 0 0 0 0 0 0
0 0 0 0 0 0 0 0 0 1 3 9 18 29 36 38 41 47 51 54 55 48 39 31 22 12 6 4 3 2 1 0 0 0 0 0 0 0 1 2 1 0 0 0 0 0 0 0 0
0 0 0 0 0 0 0 0 0 2 5 12 23 34 42 43 44 45 48 52 53 49 44 38 31 23 17 12 8 5 3 1 0 0 1 1 1 2 3 2 1 0 0 0 0 0 0 0 0
0 0 0 0 0 0 0 1 1 3 7 15 26 36 42 42 40 41 45 49 50 48 45 42 40 38 35 27 18 11 7 4 2 2 2 3 4 4 4 2 1 0 0 0 0 0 0 0 0
0 0 0 0 0 0 0 1 2 3 7 16 28 37 38 37 36 38 42 48 51 49 46 45 47 49 48 42 31 20 12 8 7 5 4 6 8 9 8 4 1 1 1 0 0 0 0 0 0
0 0 0 0 0 0 0 1 1 3 7 15 26 33 33 33 34 36 42 49 51 50 49 48 50 51 51 47 39 28 17 12 11 11 9 10 14 17 14 8 4 3 3 2 1 1 1 1 1
0 0 0 0 0 0 0 0 2 4 8 13 22 28 31 33 34 37 44 49 49 49 49 47 46 48 48 44 37 27 19 15 16 19 19 16 18 20 17 11 7 7 7 4 3 2 1 0 0
0 0 0 0 0 0 0 1 4 6 8 12 19 26 32 34 33 37 44 46 46 47 47 43 41 43 44 41 36 30 23 21 24 29 27 21 18 17 14 12 10 9 8 5 3 2 1 0 0
0 0 0 0 0 0 1 3 6 7 9 12 18 25 32 34 34 37 42 44 44 45 45 43 40 40 40 39 39 37 34 32 33 34 29 21 16 15 13 12 12 10 6 4 3 2 2 2 1
0 0 0 0 0 0 1 3 6 7 8 12 18 26 32 35 37 39 41 42 42 44 45 43 41 39 37 39 41 42 41 38 35 32 26 19 14 12 11 11 11 9 6 4 4 3 3 2 1
0 0 0 0 0 0 0 2 5 7 8 12 20 28 34 38 40 41 42 42 42 43 43 42 40 37 35 37 42 44 42 39 35 28 22 16 12 8 7 8 9 9 7 5 4 3 2 2 1
0 0 0 0 0 0 0 1 3 6 7 12 21 29 35 40 42 43 44 44 43 43 42 40 39 36 35 36 40 42 42 39 33 27 19 14 11 8 7 8 9 8 6 4 3 3 2 2 1
0 0 0 0 0 0 0 1 3 5 6 10 19 26 31 37 44 46 44 43 42 42 41 39 39 38 37 37 36 36 36 34 31 25 18 14 12 11 10 9 8 7 5 4 4 4 4 3 2
0 0 0 0 0 0 0 1 4 6 6 9 16 21 26 34 43 46 42 40 39 39 37 37 38 38 38 38 34 30 28 28 28 23 17 14 12 12 11 10 8 7 6 5 4 5 5 4 3
0 0 0 0 0 0 0 1 4 7 6 8 13 18 23 31 40 44 42 40 38 35 32 33 35 35 35 36 34 29 25 25 24 19 15 14 13 11 11 9 8 7 6 4 3 4 5 4 3
0 0 0 0 0 0 0 1 3 5 4 5 10 18 25 32 38 43 44 42 38 33 30 31 33 32 30 32 32 29 25 23 20 16 13 12 12 11 9 8 8 7 5 2 1 2 3 2 1
0 0 0 0 0 0 1 1 1 1 1 3 9 19 28 34 40 45 46 43 38 33 30 31 32 30 27 29 30 28 25 20 16 14 12 11 10 9 9 9 8 7 4 1 1 2 2 1 1
0 0 0 0 0 0 0 0 1 1 1 3 9 18 27 34 41 46 47 42 36 31 30 30 30 28 28 29 28 26 22 16 13 13 12 10 8 7 9 9 8 7 4 2 2 1 1 1 0
0 0 0 0 0 0 0 1 2 2 2 4 10 17 23 30 37 43 45 41 34 31 29 28 27 27 27 26 25 22 18 13 11 11 10 9 8 8 9 9 8 7 4 3 2 1 0 0 0
0 0 0 1 1 0 0 1 3 3 2 5 9 14 18 23 31 37 39 37 33 29 27 25 24 24 24 22 21 18 14 12 12 9 7 7 7 7 8 7 6 6 4 3 2 1 0 0 0
0 0 0 1 1 0 0 1 2 3 4 5 8 11 13 16 24 31 32 31 29 26 24 21 20 20 20 19 19 17 14 12 11 8 5 5 5 5 5 5 5 5 4 3 2 1 0 0 0
0 0 0 1 0 0 0 1 2 3 5 6 8 9 11 13 20 27 28 27 26 24 21 19 17 17 17 17 17 17 15 12 8 7 6 5 4 4 4 4 5 5 4 3 2 1 0 0 0
Wind_Speed
9 11 10 8 6 5 8 2 7 8 9 10 10 9 13 14 10 11 13 18 22 21 18 17 17 16 15 15 14 14 13 13 13 13 12 13 13 13 13 14 14 14 14 14 13 13 13 13 12
10 13 11 7 6 5 6 1 10 10 10 8 7 9 13 14 13 13 14 18 22 21 17 16 18 16 16 15 14 14 13 13 12 12 12 12 12 13 13 14 14 14 14 14 13 13 13 12 12
13 16 9 7 9 7 3 5 9 9 8 6 6 10 11 10 11 12 15 18 20 19 18 18 18 17 16 15 14 13 13 13 12 12 12 12 12 13 14 14 13 13 13 13 13 13 12 12 10
10 10 8 8 9 4 1 5 7 7 7 5 6 10 10 8 8 14 16 18 19 20 19 18 18 17 16 15 14 13 13 12 12 12 12 12 12 13 13 13 13 13 13 13 12 12 12 11 9
11 8 9 9 10 5 1 4 4 5 5 5 7 12 11 8 11 15 15 16 19 19 18 17 18 17 15 15 14 13 13 12 12 12 12 12 12 12 13 13 13 12 12 12 11 11 11 10 8
9 7 8 9 9 3 3 4 3 5 6 3 7 12 10 9 11 12 14 14 18 19 18 16 17 16 15 14 13 13 13 12 12 12 12 12 12 12 12 12 12 12 12 11 11 10 10 8 6
11 9 11 12 8 3 3 3 3 3 4 4 5 10 10 11 11 11 12 13 18 19 17 15 14 14 14 14 13 13 13 12 12 12 12 12 12 12 12 12 11 11 11 10 10 10 9 7 5
10 8 13 10 9 3 3 4 4 3 4 5 4 6 11 14 13 13 12 12 15 16 15 14 14 12 11 11 13 13 12 12 12 12 12 12 12 12 12 11 10 10 10 10 9 8 7 6 4
11 9 11 10 6 1 3 3 4 4 5 5 6 8 14 17 16 14 12 12 12 14 13 13 13 12 11 11 13 12 12 11 11 10 12 11 8 9 8 11 10 10 9 9 8 7 6 5 4
10 9 13 9 3 1 1 2 3 5 5 6 9 14 17 17 16 15 14 14 13 13 12 10 12 12 11 10 10 8 8 8 7 6 7 5 4 5 8 11 10 9 8 7 6 6 5 5 4
12 12 11 8 3 2 1 2 2 3 3 4 11 15 16 16 15 14 13 13 13 13 11 10 10 8 8 7 7 5 4 5 5 6 5 3 4 5 6 5 6 5 7 5 6 5 4 4 2
13 12 10 7 4 3 3 2 2 2 3 5 9 14 14 15 14 13 12 12 12 12 11 10 9 6 6 7 5 5 5 4 3 4 4 3 2 3 4 3 4 4 3 2 2 2 2 1 2
13 11 9 7 5 4 4 4 3 3 3 8 11 14 14 14 13 12 11 11 12 11 11 9 8 7 5 4 4 5 4 5 4 3 2 3 2 3 3 2 1 2 2 2 1 1 1 1 1
11 11 10 8 8 7 7 6 5 5 6 8 11 13 13 13 14 13 12 11 11 11 11 9 9 8 6 4 3 3 4 3 4 4 4 3 3 3 3 2 1 1 2 1 1 1 1 0 0
11 11 11 10 10 9 8 8 6 6 7 8 9 11 13 12 13 12 12 11 12 11 11 9 9 8 7 6 5 4 3 4 3 4 4 3 3 4 3 2 1 1 2 2 1 1 1 1 1
11 11 11 12 12 11 11 10 6 9 11 10 10 10 12 12 12 12 12 10 10 11 11 10 10 10 7 5 4 3 3 4 3 4 4 4 4 4 2 2 1 1 1 1 1 0 1 1 1
12 12 14 13 13 12 12 8 7 9 11 12 12 12 13 13 13 12 14 13 11 11 11 10 8 10 8 6 4 4 3 3 3 4 4 3 4 3 2 2 2 1 1 0 1 2 1 1 1
11 12 12 11 10 13 11 8 7 9 12 13 13 13 13 14 13 13 13 14 12 11 10 10 9 9 9 6 4 3 4 3 4 4 4 4 3 3 2 3 2 1 1 1 2 2 1 1 0
12 11 9 9 9 11 10 9 10 12 12 12 13 13 13 12 14 13 13 13 13 12 11 10 10 9 7 6 5 5 4 4 4 4 5 5 4 3 1 3 2 1 1 2 2 2 1 1 1
13 13 12 9 8 8 8 9 9 11 12 11 13 14 15 14 13 14 13 13 13 13 12 11 10 10 8 6 4 4 4 4 4 4 5 5 4 4 4 3 3 2 2 2 1 1 0 1 2
13 13 11 9 8 10 10 9 8 8 11 12 13 14 15 16 16 15 14 13 13 13 13 11 11 10 9 8 5 5 4 3 4 5 4 4 4 3 2 3 2 2 2 2 1 0 1 0 1
12 11 11 10 11 8 7 7 7 9 11 12 13 14 15 15 16 15 14 13 13 12 12 11 11 10 9 8 8 9 7 6 6 5 5 5 4 4 4 3 3 2 2 2 2 2 0 0 1
12 10 11 11 11 11 8 8 7 10 11 12 14 15 15 16 17 17 16 14 13 13 12 11 10 10 9 8 7 7 6 5 5 5 6 5 4 4 4 4 3 2 2 2 2 2 1 1 0
11 11 10 10 9 11 10 9 7 7 10 12 14 15 16 16 17 16 15 14 12 12 12 12 11 10 9 9 8 7 7 7 7 7 6 5 4 4 5 5 3 2 2 3 2 1 1 1 1
11 9 6 5 6 8 7 8 6 7 8 9 12 15 15 16 16 17 16 15 13 13 12 12 12 11 10 9 8 7 7 7 7 7 6 6 5 4 5 5 4 3 3 3 2 1 1 1 1
11 11 8 6 6 5 6 7 3 4 6 7 8 12 14 15 16 17 17 16 14 14 13 12 12 11 10 9 8 7 7 6 6 6 6 5 4 5 6 5 5 4 4 3 2 2 2 1 0
11 11 9 8 9 7 5 6 3 3 3 7 9 11 12 14 15 16 17 16 14 14 13 13 12 11 10 10 9 7 7 6 6 6 5 4 4 6 7 6 5 4 3 3 3 1 2 2 1
11 9 6 6 5 6 3 2 2 4 3 5 9 11 12 11 14 14 15 15 14 13 12 13 12 11 11 10 9 8 7 6 6 6 5 5 5 5 7 6 5 5 4 3 3 3 2 3 2
11 11 8 5 5 6 3 1 3 8 4 4 7 10 13 13 14 15 14 14 14 14 13 12 12 11 10 10 9 8 8 7 6 5 5 5 6 7 6 6 6 5 5 4 3 3 4 3 2
8 9 8 6 6 6 5 3 5 7 4 3 7 8 10 12 13 14 15 14 14 14 14 12 12 12 10 9 8 8 8 8 7 6 6 6 6 6 6 6 5 6 5 4 4 4 4 4 3
Wind_Direction
222 235 234 245 246 253 272 265 85 78 75 65 56 60 67 57 69 96 117 119 118 121 126 127 125 125 124 122 119 116 114 111 107 102 99 96 95 94 95 95 97 99 100 101 101 101 100 99 99
239 241 238 246 252 269 274 84 81 73 77 81 76 71 75 71 83 108 119 121 121 125 131 127 127 126 126 125 124 121 118 114 110 105 102 100 98 98 97 98 98 99 100 100 100 99 100 101 102
251 255 257 246 248 250 267 81 93 97 96 99 88 71 68 81 93 112 123 127 125 127 126 126 130 128 127 126 125 122 120 117 113 109 106 103 102 102 101 101 100 99 98 97 97 98 99 102 103
244 239 243 254 264 263 179 85 102 109 111 106 102 90 78 68 94 118 131 133 128 126 124 130 131 130 129 128 126 125 122 119 116 113 110 107 104 103 103 103 101 100 98 96 96 98 100 103 103
240 255 251 264 266 258 139 88 101 115 112 114 106 99 94 86 107 124 136 131 127 123 126 131 133 132 131 130 129 126 124 121 118 117 114 110 108 106 104 103 102 101 100 99 99 99 102 105 104
243 248 257 260 263 243 119 98 101 104 115 119 118 111 102 114 119 133 132 127 124 124 126 129 132 132 133 132 131 129 127 125 122 120 117 113 111 109 107 104 104 104 103 103 103 103 105 108 110
251 263 266 272 278 253 126 104 93 113 122 113 105 110 122 130 130 136 127 128 124 125 128 136 138 136 136 136 135 133 131 129 127 125 122 120 117 115 113 109 108 108 108 107 107 108 109 112 118
251 273 274 272 270 261 113 114 105 102 99 95 85 116 137 139 143 135 130 123 124 128 134 142 143 142 144 141 140 138 137 135 133 134 133 130 127 126 124 119 114 113 114 115 115 117 121 126 141
243 260 271 269 269 288 114 126 112 108 111 94 76 92 132 140 145 140 137 126 127 129 137 145 144 149 151 150 146 145 144 142 142 145 148 149 149 141 145 120 124 123 125 128 131 136 146 158 182
228 244 256 270 294 354 125 141 153 147 125 120 108 109 131 146 149 149 151 144 141 138 141 143 146 152 156 154 148 155 156 154 165 154 166 180 155 138 127 130 135 139 142 147 157 164 175 198 193
227 237 263 283 306 308 237 189 196 169 146 162 145 138 143 153 154 157 158 151 145 143 142 140 145 153 151 140 153 152 144 155 167 158 168 167 138 134 128 145 149 159 168 178 167 189 207 198 178
238 244 253 274 296 284 260 208 213 93 117 120 134 143 152 156 159 162 157 150 145 146 145 147 138 135 129 137 145 148 149 156 154 156 173 155 148 139 134 151 162 167 174 177 170 201 196 156 147
234 248 259 261 264 260 252 229 199 147 138 135 142 149 156 158 162 164 159 154 149 150 148 143 137 129 123 126 153 144 148 153 146 150 166 148 137 121 125 127 150 167 141 158 184 113 65 56 103
242 244 246 244 242 235 239 231 212 182 162 153 148 154 160 161 165 164 160 155 152 152 149 144 141 134 136 137 141 134 150 142 148 154 156 145 120 114 116 122 100 97 112 121 148 142 126 186 67
247 250 250 242 236 233 235 234 223 176 164 164 160 163 162 162 167 167 157 159 157 153 150 148 148 145 149 153 160 149 150 152 149 137 132 132 124 122 119 126 152 113 123 136 182 167 156 199 177
239 242 248 249 240 226 227 238 200 176 178 177 175 172 164 162 171 165 155 160 156 153 153 159 159 149 152 155 167 151 152 138 132 127 126 130 121 129 139 151 134 126 158 165 158 120 125 111 98
241 237 239 234 226 230 225 235 198 184 187 179 179 178 171 167 173 162 161 164 160 154 154 159 149 149 154 158 165 145 133 127 120 120 125 137 140 148 160 125 111 181 164 140 148 112 99 105 95
240 242 245 240 217 222 222 220 203 192 199 189 180 178 173 171 169 164 166 161 155 152 153 155 152 151 152 152 154 143 135 137 127 125 133 141 147 158 162 136 140 214 150 108 75 99 103 98 178
252 262 256 250 227 226 226 215 208 204 204 192 178 173 173 171 166 165 166 159 155 155 159 160 156 153 156 157 162 158 153 155 140 141 141 147 151 152 155 125 144 179 105 112 117 108 161 174 158
245 254 256 254 249 241 234 231 219 207 205 200 186 178 174 169 165 165 165 164 161 161 163 161 160 160 164 160 156 154 146 156 140 127 137 148 149 159 164 139 156 130 117 121 119 121 159 199 154
244 252 262 266 267 250 250 244 243 228 213 204 193 180 180 173 171 168 168 168 166 166 168 168 164 163 165 157 156 146 135 146 136 143 154 156 152 147 102 123 113 129 147 137 144 213 218 186 170
248 254 261 256 256 256 252 253 228 226 217 206 196 184 179 174 171 169 170 169 170 168 167 162 161 162 163 165 165 164 170 168 159 157 152 154 155 150 136 127 122 119 110 125 185 139 306 202 217
253 261 262 263 263 265 252 251 225 207 212 211 201 190 180 174 173 172 173 170 170 168 165 164 161 163 167 171 165 173 168 160 149 144 147 153 156 158 150 138 134 124 105 99 75 85 23 327 318
253 259 260 263 267 261 257 254 239 210 209 208 194 188 176 172 170 169 169 165 166 165 165 164 163 166 170 173 171 179 167 160 151 153 157 165 163 166 159 148 144 137 122 111 95 81 119 61 26
238 249 254 261 262 267 292 268 232 199 193 200 184 176 169 168 167 166 165 165 166 168 166 162 163 167 170 176 176 177 165 160 158 161 170 175 167 166 162 149 147 139 126 137 134 126 69 73 55
230 241 244 250 254 271 300 273 265 233 174 166 159 159 162 165 167 167 166 166 168 169 165 162 166 169 172 178 176 172 165 170 172 175 174 179 168 155 149 147 156 157 166 158 150 151 164 140 101
236 243 248 251 257 256 228 252 252 262 163 151 151 151 158 164 165 164 162 165 168 169 168 165 167 169 173 174 169 169 175 180 167 166 179 168 153 150 153 158 163 162 153 146 152 148 137 134 183
239 243 252 259 272 275 265 285 300 299 221 159 154 153 154 164 162 162 161 165 168 168 167 166 168 170 172 170 171 171 174 169 161 171 175 156 150 138 152 161 162 161 161 173 172 165 156 152 165
226 239 253 263 266 278 274 261 282 279 272 173 159 154 158 167 166 164 164 164 165 166 166 168 169 169 172 172 176 161 165 165 164 168 164 156 148 149 162 165 165 164 167 173 175 175 166 164 177
247 246 244 248 264 281 282 239 241 250 262 187 138 140 156 168 161 162 158 159 165 166 167 169 169 170 172 169 167 161 162 164 168 170 164 156 155 163 167 168 170 176 170 172 186 200 171 172 175